Location: Bouchavesnes-Bergen
(49.9859°N, 2.9203°E)
Time: 01:32:08
(UTC+00:00)

ATLAS 2AS CENTAUR R/B - Pass Details

Date: 09 March 2021
Orbit: 949 x 1263 km, 63.7° (Epoch: 16 April)

Event Time Altitude Azimuth Distance (km) Brightness Sun altitude
Rises 04:26:47 0° 197° (SSW) 4,183 5.5 -18.0°
Reaches altitude 10° 04:29:38 10° 192° (SSW) 3,233 5.0 -17.6°
Maximum altitude 04:37:09 50° 120° (ESE) 1,566 3.9 -16.4°
Drops below altitude 10° 04:44:34 10° 48° (NE) 3,205 6.1 -15.3°
Sets 04:47:23 0° 44° (NE) 4,144 6.7 -14.8°
